481  
ASUS43 KIND 200709  
RWRIN  
 
WEATHER ROUNDUP FOR INDIANA  
NATIONAL WEATHER SERVICE INDIANAPOLIS IN  
300 AM EDT WED MAR 20 2019  
 
NOTE: "FAIR" INDICATES FEW OR NO CLOUDS BELOW 12,000 FEET WITH NO  
SIGNIFICANT WEATHER AND/OR S TO VISIBILITY
.  
 
* - STATION DOES NOT REPORT WEATHER SUCH AS PRECIPITATION OR FOG.
 
 
+ - STATION NOT QUALITY CONTROLLED BY THE NATIONAL WEATHER SERVICE.  
USE DATA WITH CAUTION...ESPECIALLY DEWPOINT AND RELATIVE  
HUMIDITY OBSERVATIONS.  
 
INZ001>003-010>013-019-020-200800-  
NORTHWEST INDIANA  
 
CITY SKY/WX TMP DP RH WIND PRES REMARKS
 
GARY /AIRPORT/ MOCLDY 43 27 53 S7 30.21F  
KNOX *+ CLOUDY 37 28 70 SW7 30.23F WCI 32  
LA PORTE + FAIR 37 28 72 S3 30.23F  
MICHIGAN CITY+ FAIR 39 25 56 S7 30.23S WCI 34  
MONTICELLO + CLOUDY 39 27 62 S5 30.25R WCI 35  
RENSSELAER + CLOUDY 37 30 75 S5 30.24S WCI 34  
VALPARAISO CLOUDY 39 27 62 S6 30.22F WCI 35  
 

 
 
LMZ046-743>745-200800-  
SOUTHERN LAKE MICHIGAN  
 
STATION/POSITION TIME TEMP WIND PRES WAVE
 
AIR SEA DIR/SP/G HT  
(UTC) (F) (DEG/KT/KT) (MB) (FT)  
BURNS HARBOR 0640 41 190/ 7/ 9 1023.7F  
MICHIGAN CITY 0640 42 160/ 15/ 18 N/A  
 

 
 
INZ004-005-014>016-021>024-200800-  
NORTH CENTRAL INDIANA  
 
CITY SKY/WX TMP DP RH WIND PRES REMARKS
 
GOSHEN MOCLDY 37 27 67 S5 30.24S WCI 33  
LOGANSPORT + MOCLDY 36 28 75 W7 30.26S WCI 30  
PERU/GRISSOM CLOUDY 36 31 81 S8 30.24F WCI 29  
PLYMOUTH *+ CLOUDY 37 27 65 S6 30.23F WCI 33  
ROCHESTER + FAIR 41 28 60 S6 30.25F  
SOUTH BEND CLOUDY 38 25 59 S7 30.24F WCI 33  
WARSAW + CLOUDY 36 27 69 S3 30.25S  
 

 
 
INZ006>009-017-018-025>027-200800-  
NORTHEAST INDIANA  
 
CITY SKY/WX TMP DP RH WIND PRES REMARKS
 
ANGOLA *+ FAIR 34 25 69 S5 30.24F WCI 30  
AUBURN + FAIR 34 27 75 CALM 30.26F  
FORT WAYNE CLOUDY 35 29 78 S3 30.26F  
HUNTINGTON + CLOUDY 35 25 66 CALM 30.27S  
KENDALLVILLE + FAIR 35 23 61 S7 30.25S WCI 29  
 

 
 
INZ028-029-035-036-043>045-051>053-200800-  
WEST CENTRAL INDIANA  
 
CITY SKY/WX TMP DP RH WIND PRES REMARKS
 
CRAWFORDSVL + FAIR 35 28 75 SE6 30.26R WCI 30  
GREENCASTLE + MOCLDY 36 27 69 CALM 30.26R  
LAFAYETTE MOCLDY 39 26 59 CALM 30.25R  
TERRE HAUTE CLOUDY 41 30 65 SE5 30.25F  
 

 
 
INZ030>032-037>040-046>048-054>057-064-065-200800-  
CENTRAL INDIANA  
 
CITY SKY/WX TMP DP RH WIND PRES REMARKS
 
ANDERSON + FAIR 32 26 78 CALM 30.27S  
FRANKFORT + CLOUDY 37 30 77 S5 30.27R WCI 33  
GREENWOOD *+ FAIR 37 26 65 SE5 30.27F WCI 33  
INDIANAPOLIS CLOUDY 38 25 59 SE9 30.25F WCI 31  
-EAGLE CREEK FAIR 32 26 78 SE5 30.25F WCI 27  
KOKOMO + CLOUDY 35 29 78 S7 30.26F WCI 29  
MARION + FAIR 34 25 68 CALM 30.27S  
MT COMFORT *+ FAIR 34 30 86 SE5 30.27S WCI 30  
SHELBYVILLE FAIR 34 24 67 SE7 30.26F WCI 28  
ZIONSVILLE + FAIR 33 27 79 SE6 30.26S WCI 28  
 

 
 
INZ033-034-041-042-049-050-058-059-200800-  
EAST CENTRAL INDIANA  
 
CITY SKY/WX TMP DP RH WIND PRES REMARKS
 
MUNCIE FAIR 38 25 59 S5 30.26F WCI 34  
PORTLAND + FAIR 34 28 80 CALM 30.26F  
RICHMOND + FAIR 30 28 93 E6 30.28F WCI 24  
 

 
 
INZ060-061-067>069-081>083-085>088-200800-  
SOUTHWEST INDIANA  
 
CITY SKY/WX TMP DP RH WIND PRES REMARKS
 
EVANSVILLE MOCLDY 42 29 59 CALM 30.27F  
HUNTINGBURG + MOCLDY 40 28 62 SE8 30.27F WCI 34  
WASHINGTON + FAIR 40 28 62 S7 30.26F WCI 36  
 

 
 
INZ062-063-066-070>080-084-089>092-200800-  
SOUTH CENTRAL AND SOUTHEAST INDIANA  
 
CITY SKY/WX TMP DP RH WIND PRES REMARKS
 
BATESVILLE + PTCLDY 32 25 74 CALM 30.28F  
BEDFORD + FAIR 37 27 65 SE3 30.26F  
BLOOMINGTON FAIR 37 28 70 SE5 30.25F WCI 33  
FRENCH LICK *+ MOCLDY 41 14 33 SE6 30.27F  
JEFFERSONVL + FAIR 37 33 87 CALM 30.29F  
MADISON *+ FAIR 34 30 86 CALM 30.30F  
NORTH VERNON + FAIR 32 28 86 CALM 30.29F  
SEYMOUR + FAIR 37 32 81 E3 30.29F  
 

 
 
 
 
CLICK HERE TO GO TO PREVIOUS BULLETINS.

The Nexlab IN Page Main Text Page